Location: Newark
(51.3318°N, 0.0053°E)
Time: 16:02:08
(UTC+00:00)

DIWATA 2B (PO-101) - Pass Details

Date: 06 July 2022
Orbit: 583 x 599 km, 98.0° (Epoch: 07 August)

Event Time Altitude Azimuth Distance (km) Brightness Sun altitude
Exits shadow 00:45:02 - 128° (SE) 2,306 ? -15.4°
Reaches altitude 10° 00:46:02 10° 122° (ESE) 1,941 ? -15.4°
Maximum altitude 00:49:37 28° 64° (ENE) 1,147 ? -15.3°
Drops below altitude 10° 00:53:13 10° 5° (N) 1,951 ? -15.2°
Sets 00:55:37 0° 354° (N) 2,857 ? -15.1°
